www.pogodaiklimat.ru

Погода и климат >> Архив погоды >> Индия >> Западная Бенгалия >> Колката аэропорт


АРХИВ ПОГОДЫ в Колката аэропорту

Время (UTC), дата Ветер
(напр.,м/с)
 
Видим.   Явления Облачность Т
(С)
Тd
(С)
f
(%)
Тe
(С)
Тes
(С)
Комфортность P
(гПа)
Po
(гПа)
Тmin
(С)
Tmax
(С)
R
(мм)
R24
(мм)
S
(см)
21 19.05 Ю 2 2000 м мгла 9/4 540 м
[Sc Ac trans]
+29.8 +27.6 88 +48 +48 опасность
перегрева
1006.6 1005.9 1
00 20.05 Ю 2 2000 м мгла 4/4 540 м
[Sc diur, vesp]
+29.4 +27.2 88 +47 +47 опасность
перегрева
1006.6 1005.9 1
03 20.05 Ю 1 2000 м мгла 5/5 600 м
[Sc]
+32.8 +27.0 72 +51 +58 опасность
перегрева
1008.6 1007.9 +28.4 1
06 20.05 Ю 2 2000 м мгла 5/5 540 м
[Sc]
+35.4 +27.2 63 +54 +66 опасность
перегрева
1008.0 1007.3
09 20.05 ЮВ 2 2000 м мгла 4/3 540 м
[Sc diur, vesp Ac trans]
+36.2 +27.5 61 +55 +64 опасность
перегрева
1005.7 1005.0
12 20.05 Ю 2 2000 м мгла 6/4 540 м
[Cb calv Ac trans]
+34.6 +27.5 67 +54 +54 опасность
перегрева
1005.1 1004.4 +36.8
15 20.05 Ю 2 2000 м мгла 4/3 540 м
[Sc Ac trans]
+31.8 +26.8 75 +49 +49 опасность
перегрева
1006.7 1006.0
18 20.05 Ю 2 2000 м дымка 6/4 540 м
[Sc Ac trans]
+30.4 +27.4 84 +49 +49 опасность
перегрева
1006.4 1005.7
21 20.05 Ю 2 2000 м дымка 8/5 540 м
[Sc Ac trans]
+29.6 +27.4 88 +48 +48 опасность
перегрева
1005.3 1004.6
00 21.05 штиль 0 2000 м дымка 9/5 540 м
[Sc Ac trans]
+29.0 +27.6 92 +47 +47 опасность
перегрева
1006.2 1005.5
03 21.05 Ю 2 2000 м мгла 1/1 540 м
[Sc]
+32.6 +27.7 75 +52 +64 опасность
перегрева
1007.7 1007.0 +29.0
06 21.05 Ю 1 2000 м мгла 5/4 540 м
[Sc Ac trans]
+35.2 +27.3 64 +54 +68 опасность
перегрева
1007.1 1006.4
09 21.05 Ю 2 2000 м мгла 5/5 540 м
[Sc Ac trans]
+36.6 +27.6 60 +56 +63 опасность
перегрева
1004.9 1004.2
12 21.05 Ю 3 2000 м мгла 5/5 540 м
[Sc diur, vesp]
+34.6 +27.5 67 +54 +54 опасность
перегрева
1004.0 1003.3 +37.6
15 21.05 Ю 3 2000 м мгла 3/3 540 м
[Sc]
+31.0 +27.2 80 +49 +49 опасность
перегрева
1005.3 1004.6
18 21.05 Ю 2 2000 м мгла 8/5 540 м
[Sc Ac trans]
+30.4 +26.4 79 +46 +46 опасность
перегрева
1006.3 1005.6
21 21.05 Ю 2 2000 м мгла 8/5 540 м
[Sc Ac trans]
+30.0 +26.9 84 +47 +47 опасность
перегрева
1004.7 1004.0
00 22.05 Ю 1 2000 м мгла 1/1 540 м
[Sc]
+29.2 +26.1 83 +44 +44 опасность
перегрева
1004.6 1003.9
03 22.05 Ю 2 2000 м мгла 4/4 540 м
[Sc]
+33.2 +26.9 70 +51 +59 опасность
перегрева
1006.3 1005.6 +29.0
06 22.05 ЮВ 2 2000 м мгла 6/6 540 м
[Sc diur, vesp]
+35.8 +27.9 64 +56 +66 опасность
перегрева
1006.0 1005.3
09 22.05 Ю 3 2000 м мгла 4/4 540 м
[Sc diur, vesp]
+36.2 +27.5 61 +55 +62 опасность
перегрева
1003.7 1003.0
12 22.05 Ю 2 2000 м мгла 4/4 540 м
[Sc diur, vesp]
+33.4 +27.1 70 +52 +52 опасность
перегрева
1002.5 1001.8 +37.3
15 22.05 Ю 3 2000 м мгла 8/5 540 м
[Cb calv Ac trans]
+31.2 +27.1 79 +49 +49 опасность
перегрева
1003.2 1002.5
18 22.05 Ю 3 2000 м мгла 8/4 540 м
[Sc Ac trans]
+30.6 +27.0 81 +48 +48 опасность
перегрева
1005.3 1004.6
21 22.05 СВ 2 2000 м гроза без осадков 9/5 540 м
[Cb calv Ac trans]
+26.4 +23.8 86 +36 +36 очень
душно
1004.8 1004.1
00 23.05 Ю 2 2000 м мгла 9/4 540 м
[Sc Ac trans]
+26.4 +22.6 80 +35 +35 очень
душно
1006.3 1005.6
03 23.05 ЮВ 3 2000 м мгла ясно +31.4 +23.6 63 +42 +52 опасность
перегрева
1007.4 1006.7 +25.4
06 23.05 Ю 3 2000 м мгла 9/6 540 м
[Sc diur, vesp Ac As]
+34.2 +25.8 62 +50 +53 опасность
перегрева
1006.5 1005.8
09 23.05 Ю 4 2000 м мгла 9/6 540 м
[Sc diur, vesp Ac As]
+35.4 +26.6 61 +53 +54 опасность
перегрева
1004.1 1003.4
12 23.05 Ю 4 2000 м мгла 8/6 540 м
[Sc diur, vesp Ac trans]
+33.0 +27.5 73 +52 +52 опасность
перегрева
1003.0 1002.3 +36.3
15 23.05 Ю 3 2000 м мгла 9/4 540 м
[Sc Ac trans]
+31.0 +26.0 75 +46 +46 опасность
перегрева
1004.3 1003.6
18 23.05 Ю 2 2000 м мгла 9/4 540 м
[Sc Ac trans]
+30.4 +26.8 81 +47 +47 опасность
перегрева
1004.8 1004.1
21 23.05 Ю 2 2000 м мгла 8/4 540 м
[Sc Ac trans]
+30.0 +26.7 83 +47 +47 опасность
перегрева
1003.4 1002.7
00 24.05 Ю 3 2000 м мгла 10/4 540 м
[Sc Ac trans]
+29.8 +26.2 81 +45 +45 опасность
перегрева
1004.9 1004.2
03 24.05 Ю 3 2000 м мгла 5/5 540 м
[Sc]
+33.4 +27.1 70 +52 +57 опасность
перегрева
1005.3 1004.6 +29.4
06 24.05 Ю 4 2000 м мгла 6/6 540 м
[Sc]
+35.2 +27.9 66 +56 +61 опасность
перегрева
1004.0 1003.3
09 24.05 Ю 2 2000 м мгла 3/3 600 м
[Sc diur, vesp]
+36.8 +27.2 58 +55 +65 опасность
перегрева
1001.9 1001.2
12 24.05 Ю 1 2000 м мгла 1/1 540 м
[Sc]
+34.4 +27.6 68 +54 +55 опасность
перегрева
1001.0 1000.3 +37.2
15 24.05 Ю 3 2000 м мгла 8/5 540 м
[Cb calv Ac trans]
+31.6 +26.6 75 +49 +49 опасность
перегрева
1001.8 1001.1
18 24.05 Ю 1 2000 м мгла 8/5 540 м
[Sc Ac trans]
+29.0 +22.5 68 +38 +38 очень
душно
1002.9 1002.2
21 24.05 Ю 1 2000 м мгла 6/5 540 м
[Cb calv Ac trans]
+28.8 +24.2 76 +40 +40 очень
душно
1000.4 999.7
00 25.05 В 2 2000 м мгла {гроза, дождь} 9/5 540 м
[Sc Ac As]
+28.6 +23.4 73 +39 +39 очень
душно
1002.3 1001.6 0.0
03 25.05 Ю 2 2000 м мгла 10/5 540 м
[Cb calv Ac As]
+30.0 +26.7 83 +47 +49 опасность
перегрева
1003.2 1002.5 +27.8 0.0
06 25.05 Ю 3 2000 м мгла 9/5 540 м
[Sc Ac As]
+33.0 +28.1 76 +54 +59 опасность
перегрева
1002.7 1002.0
09 25.05 Ю 3 2000 м мгла 9/4 540 м
[Sc Ac trans]
+34.2 +27.9 70 +55 +58 опасность
перегрева
1001.5 1000.8
12 25.05 Ю 3 2000 м мгла 9/4 540 м
[Sc Ac As]
+32.2 +27.5 76 +51 +51 опасность
перегрева
1001.7 1001.0 +34.8
15 25.05 Ю 2 2000 м мгла 9/6 540 м
[Cb cap As op]
+23.6 +23.3 98 +32 +32 очень
душно
1002.2 1001.5 23
18 25.05 Ю 2 2000 м мгла 5/4 540 м
[Sc Ac trans]
+24.0 +23.1 95 +32 +32 очень
душно
1002.6 1001.9 23
21 25.05 штиль 0 2000 м мгла 4/1 540 м
[Sc Ac trans]
+25.2 +24.0 93 +35 +35 очень
душно
1002.0 1001.3 23
00 26.05 штиль 0 2000 м мгла 8/4 540 м
[Sc Ac trans]
+25.4 +23.9 91 +35 +35 очень
душно
1003.3 1002.6 23
03 26.05 Ю 2 2000 м мгла 5/1 540 м
[Sc Ac trans]
+31.2 +27.1 79 +49 +58 опасность
перегрева
1004.4 1003.7 +22.0 23
06 26.05 Ю 2 2000 м мгла 6/5 540 м
[Sc Ac trans]
+35.2 +28.4 68 +57 +67 опасность
перегрева
1003.9 1003.2
09 26.05 Ю 2 2000 м мгла 5/5 540 м
[Sc diur, vesp]
+36.6 +30.5 71 +65 +72 опасность
перегрева
1001.7 1001.0
12 26.05 Ю 1 2000 м мгла ясно +34.4 +27.6 68 +54 +55 опасность
перегрева
1000.9 1000.2 +37.3
15 26.05 Ю 2 2000 м мгла 5/1 540 м
[Sc Ac trans]
+31.0 +28.0 84 +51 +51 опасность
перегрева
1003.3 1002.6

 

Местоположение метеостанции Колката аэропорт (Западная Бенгалия, Индия): широта 22.65 долгота 88.45 высота над уровнем моря 6 м.

В архиве по умолчанию представлена погода в Колката аэропорту за последнюю неделю. Архивные данные за месяц целиком и за предыдущие месяцы, начиная с января 2011 года, Вы можете получить, выбрав интересующий диапазон дат из раскрывающегося списка и нажав кнопку "Ввод!".


*Определитесь, кто Вы:
робот инопланетянин человек

Внимание! Время в таблицах - всемирное. Для получения местного времени необходимо прибавить поправку, которая равна 5.5 ч.

Смотрите также архив погоды в соседних городах и на ближайших метеорологических станциях:

Погода в Колкате (Западная Бенгалия, Индия) (18 км)
Погода в Багати (Западная Бенгалия, Индия) (38 км)
Погода в Бейсирхэте (Западная Бенгалия, Индия) (43 км)
Погода в Каннинге (Западная Бенгалия, Индия) (50 км)
Погода в Улуберии (Западная Бенгалия, Индия) (54 км)
Погода в Даймонд Харбор (Западная Бенгалия, Индия) (58 км)
Погода в Саткхире (Бангладеш) (65 км)
Погода в Халдии (Западная Бенгалия, Индия) (80 км)
Погода в Кришнанагаре (Западная Бенгалия, Индия) (84 км)
Погода в Бардхамане (Западная Бенгалия, Индия) (89 км)

Пояснения к столбцам:

Ветер - указаны скорость ветра в м/с - средняя за 10 мин, порывы в срок и между сроками (в фигурных скобках) и направление, откуда дует ветер: С - северный, СВ - северо-восточный, В - восточный, ЮВ - юго-восточный, Ю - южный, ЮЗ - юго-западный, З - западный, СЗ - северо-западный.
Видимость - горизонтальная дальность видимости в метрах или километрах. При видимости от 1 до 10 км при отсутствии осадков обычно наблюдается дымка, при ухудшении видимости до 1 км и менее - туман. В сухую погоду видимость может ухудшаться дымом, пылью или мглою.
Явления - указаны атмосферные явления, наблюдавшиеся в срок или в последний час перед сроком; фигурными скобками обозначены явления, наблюдавшиеся между сроками (за 1-3 часа до срока); квадратными скобками обозначены град или гололедные отложения с указанием их диаметра в мм.
Облачность - указаны через наклонную черту общая и нижняя облачность в баллах и высота нижней границы облаков в метрах; квадратными скобками обозначены формы облаков: Ci - перистые, Cs - перисто-слоистые, Cc - перисто-кучевые, Ac - высококучевые, As - высокослоистые, Sc - слоисто-кучевые, Ns - слоисто-дождевые, Cu - кучевые, Cb - кучево-дождевые. Подробнее классификацию облаков см. в Атласе облаков (PDF).
T - Температура воздуха - температура, измеренная на высоте 2 м над землей.
Td - Температура точки росы - температура, при понижении до которой содержащийся в воздухе водяной пар достигнет насыщения.
f - Относительная влажность воздуха - влажноcть воздуха, измеренная на высоте 2 м над землей.
Te - Эффективная температура - температура, которую ощущает одетый по сезону человек в тени. Характеристика душности погоды. При расчете учитывается влияние влажности воздуха и скорости ветра на теплоощущения человека.
Tes - Эффективная температура на солнце - температура, которую ощущает человек, с поправкой на солнечный нагрев. Характеристика знойности погоды. Зависит от высоты солнца над горизонтом, облачности и скорости ветра. Ночью, в пасмурную погоду, а также при ветре 12 м/с и более поправка равна нулю.
P - Атмосферное давление - приведенное к уровню моря атмосферное давление.
Po - Атмосферное давление - измеренное на уровне метеостанции атмосферное давление.
Tmin - Минимальная температура - минимум температуры воздуха на высоте 2 м над землей.
Tmax - Максимальная температура - максимум температуры воздуха на высоте 2 м над землей.
R - Количество осадков - Количество выпавших осадков за период времени, мм. При наведении курсора мыши на число - период времени, за который выпало указанное количество осадков.
R24 - Количество осадков - Количество выпавших осадков за 24 часа, мм.
S - Снежный покров - Высота снежного покрова, см. При наведении курсора мыши на число - состояние снежного покрова и степень покрытия местности в баллах.